Ashland, WI

4:14 AM CDT on April 28, 2017 (GMT -0500)
Kennedy Memorial

Weather History for KASX - November, 2013

Change the Weather History Date:

Wednesday, November 13, 2013

  Actual Average Record
Temperature  
Mean Temperature 36 °F -  
Max Temperature 50 °F 37 °F 68 °F (1999)
Min Temperature 23 °F 23 °F -5 °F (1986)
Degree Days  
Heating Degree Days 28    
Moisture  
Dew Point 22 °F    
Average Humidity 55    
Maximum Humidity 67    
Minimum Humidity 38    
Precipitation  
Precipitation 0.00 in - - ()
Sea Level Pressure  
Sea Level Pressure 29.99 in    
Wind  
Wind Speed 13 mph (SW)    
Max Wind Speed 23 mph    
Max Gust Speed 34 mph    
Visibility 10 miles    
Events      
Averages and records for this station are not official NWS values.
T = Trace of Precipitation, MM = Missing Value Source: NWS Daily Summary

Daily Weather History Graph

Daily Weather History Graph

Search for Another Location

Airport or City:

Trip Planner

Search our weather history database for the weather conditions in past years. The results will help you decide how hot, cold, wet, or windy it might be!

Date:

Astronomy

Nov. 13, 2013 Rise Set
Actual Time 7:03 AM CST 4:32 PM CST
Civil Twilight 6:30 AM CST 5:04 PM CST
Nautical Twilight 5:54 AM CST 5:41 PM CST
Astronomical Twilight 5:18 AM CST 6:16 PM CST
Moon 2:31 PM CST (11/13) 2:42 AM CST (11/13)
Length of Visible Light 10h 34m
Length of Day
9h 29m
Waxing Gibbous, 85% of the Moon is Illuminated
Nov 13
Waxing Gibbous
Nov 17
Full
Nov 25
Last Quarter
Dec 2
New
Dec 9
First Quarter

Hourly Weather History & Observations

Time (CST) Temp. Windchill Dew Point Humidity Pressure Visibility Wind Dir Wind Speed Gust Speed Precip Events Conditions
12:53 AM 23.0 °F 12.4 °F 10.0 °F 58% 30.38 in 10.0 mi SW 10.4 mph - N/A   Clear
1:53 AM 23.0 °F 12.4 °F 10.9 °F 60% 30.35 in 10.0 mi SW 10.4 mph - N/A   Clear
2:53 AM 23.0 °F 13.1 °F 10.9 °F 60% 30.32 in 10.0 mi SW 9.2 mph - N/A   Clear
3:53 AM 24.1 °F 12.0 °F 12.0 °F 60% 30.28 in 10.0 mi SW 13.8 mph 20.7 mph N/A   Clear
4:53 AM 25.0 °F 13.1 °F 12.9 °F 60% 30.23 in 10.0 mi SSW 13.8 mph - N/A   Clear
5:53 AM 25.0 °F 13.6 °F 14.0 °F 63% 30.17 in 10.0 mi SSW 12.7 mph - N/A   Clear
6:53 AM 25.0 °F 14.2 °F 15.1 °F 66% 30.14 in 10.0 mi SSW 11.5 mph 20.7 mph N/A   Clear
7:53 AM 25.0 °F 13.1 °F 15.1 °F 66% 30.12 in 10.0 mi SSW 13.8 mph - N/A   Clear
8:53 AM 30.0 °F 18.3 °F 17.1 °F 59% 30.06 in 10.0 mi SSW 17.3 mph 27.6 mph N/A   Clear
9:53 AM 35.1 °F 24.1 °F 19.9 °F 54% 30.00 in 10.0 mi SSW 19.6 mph 27.6 mph N/A   Clear
10:53 AM 37.9 °F 28.2 °F 21.9 °F 53% 29.93 in 10.0 mi SSW 18.4 mph 31.1 mph N/A   Clear
11:53 AM 44.1 °F 35.2 °F 24.1 °F 45% 29.86 in 10.0 mi SW 23.0 mph 33.4 mph N/A   Clear
12:53 PM 46.9 °F - 24.1 °F 41% 29.83 in 10.0 mi SW 17.3 mph 34.5 mph N/A   Clear
1:53 PM 50.0 °F - 25.0 °F 38% 29.80 in 10.0 mi SW 18.4 mph 32.2 mph N/A   Clear
2:53 PM 50.0 °F - 26.1 °F 39% 29.81 in 10.0 mi SW 16.1 mph 26.5 mph N/A   Clear
3:53 PM 48.0 °F - 26.1 °F 42% 29.80 in 10.0 mi SW 17.3 mph 26.5 mph N/A   Clear
4:53 PM 46.0 °F 40.6 °F 26.1 °F 46% 29.81 in 10.0 mi SW 11.5 mph 21.9 mph N/A   Clear
5:53 PM 45.0 °F 38.5 °F 27.0 °F 49% 29.84 in 10.0 mi SW 13.8 mph 23.0 mph N/A   Clear
6:53 PM 44.1 °F 38.6 °F 27.0 °F 51% 29.86 in 10.0 mi SW 10.4 mph 18.4 mph N/A   Clear
7:53 PM 43.0 °F 36.8 °F 28.0 °F 56% 29.86 in 10.0 mi WSW 11.5 mph - N/A   Clear
8:53 PM 43.0 °F 38.2 °F 30.0 °F 60% 29.85 in 10.0 mi WSW 8.1 mph - N/A   Clear
9:53 PM 43.0 °F 37.7 °F 30.9 °F 62% 29.84 in 10.0 mi WSW 9.2 mph - N/A   Clear
10:53 PM 42.1 °F 36.1 °F 32.0 °F 67% 29.83 in 10.0 mi WSW 10.4 mph - N/A   Clear
11:53 PM 43.0 °F 38.8 °F 32.0 °F 65% 29.82 in 10.0 mi WSW 6.9 mph - N/A   Clear